Tracking 19795 objects as of 18-Jul-2019
HD Live streaming from Space Station
objects crossing your sky now

COSMOS 1275 DEB

Track COSMOS 1275 DEB now!
10-day predictions


NORAD ID: 15766
Int'l Code: 1981-053KE
Perigee: 811.0 km
Apogee: 825.2 km
Inclination: 82.9 °
Period: 101.1 minutes
Semi major axis: 7189 km
RCS: 0.0112 m2 (small)
Launch date: June 4, 1981
Source: Commonwealth of Independent States (former USSR) (CIS)
Launch site: PLESETSK MISSILE AND SPACE COMPLEX (PKMTR)

Note: This is SATELLITE DEBRIS
aabbcc
Your satellite tracking list
Your tracking list is empty




NASA's NSSDC Master Catalog

Two Line Element Set (TLE):
1 15766U 81053KB  19197.42029494  .00000606  00000-0  25504-3 0  9994
2 15766  82.9438 190.0790 0009883  39.9371 320.2538 14.24264562753179
Source of the keplerian elements: AFSPC